AirNav   Air Wisconsin pilot careers
 
 361 users online  

2S8 Wilbur Airport
Wilbur, Washington, USA

GOING TO WILBUR?


FAA INFORMATION EFFECTIVE 03 JANUARY 2019

Location

FAA Identifier: 2S8
Lat/Long: 47-45-12.2000N / 118-44-38.1000W
47-45.203333N / 118-44.635000W
47.7533889 / -118.7439167
(estimated)
Elevation: 2183.3 ft. / 665.5 m (surveyed)
Variation: 15E (2015)
From city: 2 miles SW of WILBUR, WA
Time zone: UTC -8 (UTC -7 during Daylight Saving Time)
Zip code: 99185

Airport Operations

Airport use: Open to the public
Activation date: 12/1938
Control tower: no
ARTCC: SEATTLE CENTER
FSS: SEATTLE FLIGHT SERVICE STATION
NOTAMs facility: SEA (NOTAM-D service available)
Attendance: MON-FRI 0800-1700
Wind indicator: lighted
Segmented circle: yes
LIGHTED.
Lights: ACTVT MIRL RY 02/20 - CTAF. PAPI RY 20 OPER CONTINUOUSLY.
Beacon: white-green (lighted land airport)
Operates sunset to sunrise.

Airport Communications

CTAF: 122.9
WX AWOS-2: 124.175 (509-647-0337)
GRANT COUNTY APPROACH: 126.4
GRANT COUNTY DEPARTURE: 126.4
IC: 126.4
  • APCH/DEP SVC PRVDD BY SEATTLE ARTCC ON FREQS 126.1/291.6 (MARLIN RCAG) WHEN GRANT COUNTY APCH CTL CLSD.

Nearby radio navigation aids

VOR radial/distance  VOR name  Freq  Var
EPHr030/35.6EPHRATA VORTAC112.6021E
MWHr018/40.0MOSES LAKE VOR/DME115.0018E

Airport Services

Fuel available: 100LL JET-A
Parking: tiedowns
Airframe service: NONE
Powerplant service: NONE
Bottled oxygen: NONE
Bulk oxygen: NONE

Runway Information

Runway 2/20

Dimensions: 3851 x 60 ft. / 1174 x 18 m
Surface: asphalt, in excellent condition
Weight bearing capacity: 
Single wheel: 15.5
Runway edge lights: medium intensity
Gradient: N
RUNWAY 2  RUNWAY 20
Latitude: 47-44.948315N47-45.458557N
Longitude: 118-44.912947W118-44.356528W
Elevation: 2165.4 ft.2183.1 ft.
Gradient: 0.5% UP0.5% DOWN
Traffic pattern: leftleft
Runway heading: 021 magnetic, 036 true201 magnetic, 216 true
Markings: nonprecision, in good conditionbasic, in good condition
Visual slope indicator: 2-light PAPI on left (3.00 degrees glide path)
Runway end identifier lights: yesno
Touchdown point: yes, no lightsyes, no lights

Airport Ownership and Management from official FAA records

Ownership: Publicly-owned
Owner: TOWN OF WILBUR
PO BOX 214
WILBUR, WA 99185
Phone 509-647-5821
Manager: ROBERT WYBORNEY
607 NE DELLAH
WILBUR, WA 99185
Phone 509-647-2396

Airport Operational Statistics

Aircraft based on the field: 18
Single engine airplanes: 18
    
Aircraft operations: avg 109/week *
61% transient general aviation
39% local general aviation
* for 12-month period ending 31 December 2015

Additional Remarks

ON SITE AWOS-II, PHONE 509-647-0337, CTAF 124.175.
CHECK NOTAMS FOR FIRE FIGHTING OPERATIONS IN SUMMER MONTHS.
WILDLIFE INVOF RUNWAY.

Instrument Procedures

NOTE: All procedures below are presented as PDF files. If you need a reader for these files, you should download the free Adobe Reader.

NOT FOR NAVIGATION. Please procure official charts for flight.
FAA instrument procedures published for use from 3 January 2019 at 0901Z to 31 January 2019 at 0900Z.

 
IAPs - Instrument Approach Procedures
RNAV (GPS)-A   download (134KB)
 
WIPES ONE (OBSTACLE) (RNAV)   download (137KB)
NOTE: Special Take-Off Minimums/Departure Procedures apply   download (223KB)

Other nearby airports with instrument procedures:

KMWH - Grant County International Airport (40 nm SW)
KEPH - Ephrata Municipal Airport (41 nm SW)
KSKA - Fairchild Air Force Base (45 nm E)
KGEG - Spokane International Airport (49 nm E)
KOMK - Omak Airport (53 nm NW)
 
Loc | Ops | Rwys | IFR | FBO | Links
Com | Nav | Svcs | Stats | Notes
Area around 2S8 (Wilbur Airport)
 
Road maps at: MapQuest Bing Google
 
Aerial photo
WARNING: Photo may not be current or correct
Aerial photo of 2S8 (Wilbur Airport)
Do you have a better or more recent aerial photo of Wilbur Airport that you would like to share? If so, please send us your photo.

 
Sectional chart

 
Airport distance calculator
Flying to Wilbur Airport? Find the distance to fly.

From to 2S8

Sunrise and sunset
Times for 21-Jan-2019
 Local
(UTC-8)
 Zulu
(UTC)
Morning civil twilight07:0115:01
Sunrise07:3515:35
Sunset16:3800:38
Evening civil twilight17:1201:12

Current date and time
Zulu (UTC)  22-Jan-2019 07:44:24
Local (UTC-8)  21-Jan-2019 23:44:24
 
METAR
KMWH 
41nm SW 
220652Z AUTO 13003KT 10SM CLR M02/M03 A3039 RMK AO2 SLP302 T10171033 $
KEPH 
41nm SW 
220653Z AUTO 15007KT 10SM CLR M03/M05 A3036 RMK AO2 SLP295 T10281050 $
KSKA 
45nm E 
220732Z 18003KT 10SM BKN004 M04/M04 A3034 RMK AO2A SLP305 $
S10 
49nm W 
SuperAWOS
220655Z AUTO 00000KT 10SM M02/M07 A3035
KGEG 
50nm E 
220653Z 16007KT 10SM CLR M04/M06 A3035 RMK AO2 SLP304 T10391061
TAF
KMWH 
41nm SW 
220537Z 2206/2306 26003KT P6SM BKN160 FM221200 VRB03KT 3SM BR BCFG SCT002 BKN150 FM221800 18005KT P6SM OVC060 FM222100 17005KT 2SM -SN OVC020 FM230200 20007KT 3SM BR BKN008
KSKA 
45nm E 
220304Z 2203/2309 VRB06KT 9999 FEW200 QNH3027INS BECMG 2211/2212 18006KT 9999 SCT005 BKN010 OVC030 620106 QNH3030INS BECMG 2222/2223 20009KT 4800 -SN BKN004 OVC010 620049 QNH3020INS BECMG 2304/2305 20010G15KT 0400 SN FZFG OVC001 620019 QNH3009INS TX00/2221Z TNM04/2211Z
KGEG 
50nm E 
220537Z 2206/2306 16007KT P6SM SKC FM220800 17008KT 3SM BR OVC005 FM221500 17008KT 6SM BR OVC008 FM221700 20010KT P6SM VCSH FEW010 OVC060 FM222100 20010KT 5SM -SN OVC030 FM222300 19007KT 3/4SM -SN SCT009 OVC015
NOTAMs
Click for the latest NOTAMs
NOTAMs are issued by the DoD/FAA and will open in a separate window not controlled by AirNav.

 

 
 

FBO, Fuel Providers, and Aircraft Ground Support

  
 Business Name 
 
 Contact 
 
 Services / Description 
 
Fuel Prices
 
Comments
  
Greg's Crop Care Corporation 509-647-2441
no information available

If you are affiliated with Greg's Crop Care Corporation and would like to show here your services, contact info, web link, logo, and more, click here
100LL Jet A
AS $5.00 $3.75 
 Updated 07-Jan-2019
 
   write
AS=Assisted/Self Service
Update Fuel Prices
 

Would you like to see your business listed on this page?

 If your business provides an interesting product or service to pilots, flight crews, aircraft, or users of the Wilbur Airport, you should consider listing it here.  To start the listing process, click on the button below
 
Add a business
 

Other Pages about Wilbur Airport

Update a link
 
Copyright © AirNav, LLC. All rights reserved. Privacy Policy  Contact